Location: Gad�tanya
(48.0500°N, 20.8500°E)
Time: 23:17:11
(UTC+00:00)

DELTA 2 R/B (1) - Pass Details

Date: 05 July 2020
Orbit: 791 x 802 km, 39.6° (Epoch: 05 August)

Event Time Altitude Azimuth Distance (km) Brightness Sun altitude
Rises 20:39:04 0° 228° (SW) 3,282 6.6 -14.1°
Reaches altitude 10° 20:41:55 10° 216° (SW) 2,357 5.8 -14.4°
Maximum altitude 20:46:25 26° 162° (SSE) 1,533 4.5 -14.7°
Enters shadow 20:49:03 18° 123° (ESE) 1,860 5.0 -14.9°
